Tracking 28125 objects as of 4-Oct-2023
HD Live streaming from Space Station
objects crossing your sky now

STARLINK-2632

Track STARLINK-2632 now!
10-day predictions
STARLINK-2632 is classified as:


NORAD ID: 48448
Int'l Code: 2021-040W
Perigee: 553.7 km
Apogee: 555.1 km
Inclination: 53.1 °
Period: 95.6 minutes
Semi major axis: 6925 km
RCS: Unknown
Launch date: May 9, 2021
Source: United States (US)
Launch site: AIR FORCE EASTERN TEST RANGE (AFETR)
Your satellite tracking list
Your tracking list is empty




NASA's NSSDC Master Catalog

Two Line Element Set (TLE):
1 48448U 21040W   23276.22908987  .00036000  00000-0  24244-2 0  9997
2 48448  53.0535 210.0750 0001017 114.4787 245.6308 15.06384952133982
Source of the keplerian elements: AFSPC